| time (UTC) | temp F | wind direction | speed MPH | gust MPH | rain 1hr in | rain 24hr in | rain mn in | humidity % | barometer mb |
| 20260903033206 | 59 | 110 | 2.0 | 8.0 | 0.00 | 0.21 | 0.21 | 89 | 1006.5 |
| 20260903030203 | 59 | 90 | 2.0 | 5.0 | 0.00 | 0.21 | 0.21 | 89 | 1006.2 |
| 20260903023704 | 60 | 104 | 2.0 | 3.0 | 0.00 | 0.21 | 0.21 | 85 | 1005.8 |
| 20260903023204 | 61 | 112 | 2.0 | 9.0 | 0.00 | 0.21 | 0.21 | 84 | 1005.8 |
| 20260903020703 | 61 | 147 | 3.0 | 12.0 | 0.01 | 0.21 | 0.21 | 82 | 1005.6 |
| 20260903013704 | 61 | 183 | 3.0 | 8.0 | 0.02 | 0.21 | 0.21 | 87 | 1005.5 |
| 20260903013204 | 61 | 176 | 4.0 | 15.0 | 0.03 | 0.21 | 0.21 | 87 | 1005.5 |
| 20260903010704 | 60 | 173 | 5.0 | 15.0 | 0.03 | 0.20 | 0.20 | 86 | 1004.8 |
| 20260903010204 | 60 | 157 | 6.0 | 14.0 | 0.03 | 0.20 | 0.20 | 86 | 1004.8 |
| 20260903003204 | 61 | 222 | 3.0 | 12.0 | 0.01 | 0.18 | 0.18 | 91 | 1004.8 |
| 20260903000703 | 61 | 135 | 1.0 | 3.0 | 0.01 | 0.17 | 0.17 | 90 | 1004.0 |
| 20260903000204 | 61 | 127 | 1.0 | 6.0 | 0.01 | 0.17 | 0.17 | 90 | 1004.0 |
| 20260902233704 | 61 | 132 | 2.0 | 7.0 | 0.04 | 0.17 | 0.17 | 90 | 1004.0 |
| 20260902233204 | 61 | 71 | 3.0 | 10.0 | 0.05 | 0.17 | 0.17 | 90 | 1003.9 |
| 20260902230204 | 61 | 98 | 2.0 | 5.0 | 0.07 | 0.16 | 0.16 | 90 | 1004.5 |
| 20260902223704 | 62 | 310 | 0.0 | 2.0 | 0.07 | 0.13 | 0.13 | 89 | 1004.2 |
| 20260902223204 | 62 | 177 | 1.0 | 3.0 | 0.06 | 0.12 | 0.12 | 88 | 1004.3 |
| 20260902220204 | 62 | 254 | 0.0 | 3.0 | 0.05 | 0.09 | 0.09 | 88 | 1004.5 |
| 20260902213704 | 62 | 271 | 1.0 | 2.0 | 0.03 | 0.06 | 0.06 | 85 | 1004.5 |
| 20260902213203 | 63 | 271 | 1.0 | 7.0 | 0.03 | 0.06 | 0.06 | 85 | 1004.5 |
| 20260902210704 | 64 | 168 | 2.0 | 5.0 | 0.01 | 0.04 | 0.04 | 81 | 1004.5 |
| 20260902210204 | 64 | 196 | 1.0 | 5.0 | 0.01 | 0.04 | 0.04 | 79 | 1004.5 |
| 20260902203704 | 65 | 270 | 3.0 | 6.0 | 0.03 | 0.03 | 0.03 | 76 | 1004.4 |
| 20260902203203 | 65 | 228 | 2.0 | 9.0 | 0.03 | 0.03 | 0.03 | 74 | 1004.4 |
| 20260902200704 | 65 | 294 | 0.0 | 2.0 | 0.03 | 0.03 | 0.03 | 81 | 1004.6 |
| 20260902200205 | 64 | 327 | 2.0 | 17.0 | 0.03 | 0.03 | 0.03 | 80 | 1004.6 |
| 20260902193704 | 64 | 201 | 6.0 | 16.0 | 0.00 | 0.00 | 0.00 | 76 | 1005.0 |
| 20260902193204 | 66 | 252 | 7.0 | 18.0 | 0.00 | 0.00 | 0.00 | 68 | 1004.9 |
| 20260902190205 | 70 | 161 | 2.0 | 9.0 | 0.00 | 0.00 | 0.00 | 59 | 1004.6 |
| 20260902183704 | 68 | 112 | 3.0 | 3.0 | 0.00 | 0.00 | 0.00 | 63 | 1004.8 |
| 20260902183204 | 68 | 169 | 2.0 | 8.0 | 0.00 | 0.00 | 0.00 | 64 | 1004.8 |
| 20260902180704 | 66 | 105 | 2.0 | 3.0 | 0.00 | 0.00 | 0.00 | 69 | 1005.1 |
| 20260902180204 | 66 | 140 | 0.0 | 7.0 | 0.00 | 0.00 | 0.00 | 67 | 1005.2 |
| 20260902173704 | 66 | 135 | 1.0 | 3.0 | 0.00 | 0.00 | 0.00 | 69 | 1005.5 |
| 20260902173204 | 66 | 159 | 1.0 | 7.0 | 0.00 | 0.00 | 0.00 | 69 | 1005.5 |
| 20260902170704 | 65 | 129 | 2.0 | 5.0 | 0.00 | 0.00 | 0.00 | 68 | 1005.8 |
| 20260902163704 | 65 | 163 | 3.0 | 6.0 | 0.00 | 0.00 | 0.00 | 68 | 1006.0 |
| 20260902163204 | 66 | 169 | 3.0 | 6.0 | 0.00 | 0.00 | 0.00 | 68 | 1006.1 |
| 20260902160704 | 66 | 143 | 1.0 | 2.0 | 0.00 | 0.00 | 0.00 | 72 | 1006.2 |
| 20260902160204 | 65 | 143 | 2.0 | 5.0 | 0.00 | 0.00 | 0.00 | 72 | 1006.2 |
| 20260902153704 | 64 | 167 | 2.0 | 3.0 | 0.00 | 0.00 | 0.00 | 80 | 1006.5 |
| 20260902150704 | 61 | 74 | 1.0 | 3.0 | 0.00 | 0.00 | 0.00 | 84 | 1006.8 |
| 20260902150204 | 61 | 61 | 2.0 | 3.0 | 0.00 | 0.00 | 0.00 | 85 | 1006.9 |
| 20260902143203 | 60 | 80 | 1.0 | 5.0 | 0.00 | 0.00 | 0.00 | 86 | 1007.4 |
| 20260902140704 | 59 | 101 | 0.0 | 0.0 | 0.00 | 0.00 | 0.00 | 88 | 1007.4 |
| 20260902133703 | 59 | 101 | 1.0 | 3.0 | 0.00 | 0.00 | 0.00 | 89 | 1007.4 |
| 20260902133203 | 58 | 101 | 1.0 | 3.0 | 0.00 | 0.00 | 0.00 | 90 | 1007.4 |
| 20260902130204 | 60 | 101 | 1.0 | 3.0 | 0.00 | 0.00 | 0.00 | 87 | 1007.6 |
| 20260902123704 | 61 | 101 | 1.0 | 2.0 | 0.00 | 0.00 | 0.00 | 86 | 1007.8 |
| 20260902123204 | 61 | 101 | 1.0 | 5.0 | 0.00 | 0.00 | 0.00 | 85 | 1007.8 |
| 20260902120704 | 61 | 115 | 1.0 | 3.0 | 0.00 | 0.00 | 0.00 | 85 | 1007.9 |
| 20260902120204 | 61 | 113 | 1.0 | 5.0 | 0.00 | 0.00 | 0.00 | 86 | 1007.9 |
| 20260902113703 | 60 | 114 | 2.0 | 3.0 | 0.00 | 0.00 | 0.00 | 87 | 1008.1 |
| 20260902110704 | 60 | 93 | 2.0 | 3.0 | 0.00 | 0.00 | 0.00 | 87 | 1008.4 |
| 20260902110203 | 60 | 119 | 1.0 | 3.0 | 0.00 | 0.00 | 0.00 | 87 | 1008.4 |
| 20260902103704 | 60 | 141 | 2.0 | 3.0 | 0.00 | 0.00 | 0.00 | 89 | 1008.5 |
| 20260902103204 | 60 | 111 | 2.0 | 5.0 | 0.00 | 0.00 | 0.00 | 89 | 1008.5 |
| 20260902100704 | 60 | 103 | 1.0 | 3.0 | 0.00 | 0.00 | 0.00 | 89 | 1008.8 |
| 20260902100204 | 60 | 83 | 2.0 | 3.0 | 0.00 | 0.00 | 0.00 | 89 | 1008.8 |
| 20260902093204 | 61 | 81 | 1.0 | 3.0 | 0.00 | 0.00 | 0.00 | 89 | 1008.8 |
| 20260902090704 | 61 | 154 | 1.0 | 5.0 | 0.00 | 0.00 | 0.00 | 88 | 1008.9 |
| 20260902090205 | 61 | 188 | 1.0 | 3.0 | 0.00 | 0.00 | 0.00 | 89 | 1009.0 |
| 20260902083704 | 61 | 115 | 2.0 | 6.0 | 0.00 | 0.00 | 0.00 | 88 | 1009.3 |
| 20260902083204 | 62 | 128 | 1.0 | 3.0 | 0.00 | 0.00 | 0.00 | 87 | 1009.4 |
| 20260902080703 | 61 | 106 | 1.0 | 3.0 | 0.00 | 0.00 | 0.00 | 87 | 1009.4 |
| 20260902080204 | 61 | 84 | 1.0 | 3.0 | 0.00 | 0.00 | 0.00 | 87 | 1009.4 |
| 20260902073703 | 62 | 83 | 2.0 | 3.0 | 0.00 | 0.00 | 0.00 | 86 | 1009.5 |
| 20260902073205 | 62 | 102 | 2.0 | 7.0 | 0.00 | 0.00 | 0.00 | 86 | 1009.6 |
| 20260902070703 | 62 | 126 | 2.0 | 3.0 | 0.00 | 0.00 | 0.00 | 87 | 1009.7 |
| 20260902070204 | 62 | 111 | 2.0 | 5.0 | 0.00 | 0.00 | 0.00 | 87 | 1009.7 |
| 20260902060704 | 62 | 110 | 2.0 | 3.0 | 0.00 | 0.00 | 0.00 | 87 | 1009.8 |
| 20260902060204 | 62 | 82 | 2.0 | 7.0 | 0.00 | 0.00 | 0.00 | 87 | 1009.8 |
| 20260902053704 | 62 | 84 | 1.0 | 3.0 | 0.00 | 0.00 | 0.00 | 87 | 1010.0 |
| 20260902053204 | 62 | 111 | 2.0 | 7.0 | 0.00 | 0.00 | 0.00 | 87 | 1010.0 |
| 20260902050204 | 62 | 122 | 2.0 | 6.0 | 0.00 | 0.00 | 0.00 | 87 | 1010.1 |
| 20260902043203 | 62 | 92 | 1.0 | 3.0 | 0.00 | 0.00 | 0.00 | 87 | 1010.2 |